Regional Weather Roundup
Issued by NWS Boston, MA

Current Version | Previous Version | Text Only | Print | Product List | Glossary On
Versions: 1 2 3 4 5 6 7 8 9 10 11 12 13 14 15 16 17 18 19 20 21 22 23 24 25 26 27 28 29 30 31 32 33 34 35 36 37 38 39 40 41 42 43 44 45 46 47 48 49 50
657 ASUS41 KBOX 291710 RWRBOX REGIONAL WEATHER ROUNDUP NATIONAL WEATHER SERVICE TAUNTON MA 100 PM EDT WED MAR 29 2017 NOTE: "FAIR" INDICATES FEW OR NO CLOUDS BELOW 12,000 FEET WITH NO SIGNIFICANT WEATHER AND/OR OBSTRUCTIONS TO VISIBILITY. MAZALL-291800- EASTERN MASSACHUSETTS CITY SKY/WX TMP DP RH WIND PRES REMARKS BOSTON CLOUDY 43 37 79 N9 30.03S BEVERLY CLOUDY 45 39 79 N10 30.02S LAWRENCE CLOUDY 43 33 68 NW14 30.04S BEDFORD CLOUDY 47 32 56 NW14G20 30.02S BLUE HILL N/A 39 36 89 VRB7 29.99S NORWOOD CLOUDY 46 37 71 N9 30.02F MARSHFIELD CLOUDY 43 36 75 N10G17 30.02S PLYMOUTH CLOUDY 46 33 60 N17G26 30.01S TAUNTON CLOUDY 43 36 76 NW9 30.02S NEW BEDFORD CLOUDY 44 35 70 N10G18 30.00F $$ MAZALL-291800- CAPE COD AND THE ISLANDS CITY SKY/WX TMP DP RH WIND PRES REMARKS FALMOUTH CLOUDY 43 34 70 MISG 30.00S HYANNIS CLOUDY 44 38 79 N16G30 29.96S CHATHAM CLOUDY 42 37 82 VRB7G18 29.98R PROVINCETOWN CLOUDY 42 36 79 N16G23 30.01S NANTUCKET CLOUDY 44 37 76 N21G28 29.97R MARTHAS VNYRD CLOUDY 48 37 65 N21 29.98S $$ MAZALL-291800- CENTRAL AND WESTERN MASSACHUSETTS CITY SKY/WX TMP DP RH WIND PRES REMARKS WORCESTER CLOUDY 43 27 53 NW14 30.01S FITCHBURG CLOUDY 47 31 53 N14G25 30.04R ORANGE CLOUDY 44 31 60 N13G20 30.05S SPRINGFIELD PTSUNNY 49 31 49 NW13 30.03F WESTFIELD MOSUNNY 50 31 48 N16G26 30.04F NORTH ADAMS PTSUNNY 43 29 57 NW7G22 30.10S PITTSFIELD CLOUDY 41 29 62 NW14G24 30.07S $$ RIZALL-291800- RHODE ISLAND CITY SKY/WX TMP DP RH WIND PRES REMARKS PROVIDENCE PTSUNNY 47 35 63 N12 30.02F NEWPORT CLOUDY 44 38 79 N13G22 30.01S BLOCK ISLAND CLOUDY 46 38 73 N10 30.02S SMITHFIELD CLOUDY 46 36 68 N12G18 30.01F WESTERLY CLOUDY 49 37 63 N12 30.02F $$ CTZALL-291800- CONNECTICUT CITY SKY/WX TMP DP RH WIND PRES REMARKS BRADLEY INTL PTSUNNY 52 32 46 N14G21 30.04F HARTFORD MOSUNNY 52 34 50 N7G18 30.04F BRIDGEPORT SUNNY 54 36 50 NW16G25 30.04F DANBURY SUNNY 49 34 56 N16G23 30.07F GROTON MOSUNNY 54 34 46 N13 30.00F NEW HAVEN MOSUNNY 53 35 50 NW10 30.03F CHESTER NOT AVBL MERIDEN MOSUNNY 55 33 43 NW15G23 30.03F WILLIMANTIC MOSUNNY 52 33 48 N12G22 30.03F OXFORD MOSUNNY 48 34 57 N15G22 30.05F $$ MEZ002-015-021-024-NHZ003-005-008-011-012-014-VTZ005-008-291800- NORTHERN NEW ENGLAND CITY SKY/WX TMP DP RH WIND PRES REMARKS PORTLAND ME PTSUNNY 44 28 53 N14G22 30.00F BANGOR ME CLOUDY 38 30 73 NW14 30.00S WCI 30 CONCORD NH CLOUDY 43 30 60 NW16G23 30.04R MANCHESTER NH CLOUDY 44 28 53 NW15 30.02R NASHUA NH CLOUDY 45 30 55 NW17G24 30.04R PORTSMOUTH NH LGT RAIN 44 36 72 W5 30.00S JAFFREY NH CLOUDY 42 26 53 NW13G21 30.03S KEENE NH CLOUDY 42 28 57 N15G25 30.06F BURLINGTON VT FLURRIES 38 26 62 N17 30.16R WCI 28 MT. WASHINGTON FOG 14 14 100 W36G45 N/A VSB 0 WCI -8 $$ NYZ052-076-291800- EASTERN NEW YORK CITY SKY/WX TMP DP RH WIND PRES REMARKS ALBANY PTSUNNY 44 34 67 VRB3 30.14S NEW YORK CITY MOSUNNY 55 34 45 NW12 30.05F $$ ANZALL-291800- MARINE OBSERVATIONS STATION/POSITION TIME TEMP WIND PRES VSBY WAVE AIR SEA DIR/SP/G HT/PER (UTC) (F) (DEG/KT/KT) (MB) (MI) (FT/S) BOSTON BUOY 1550 40 40 350/ 14/ 16 1016.0 5/ 8 BUZZARDS BAY 1600 41 350/ 17/ 18 1016.5R NANTUCKET SOUND 1650 39 1014.8R 3/ 4 MASS BAY-STELLWA 1604 39 39 10/ 14/ 16 1015.1F 5/ 7 ISLE OF SHOALS 1600 41 10/ 9/ 11 1016.2F S OF BLOCK IS 1655 40 N/A 4/ 4 $$ ......................KEY......................... SKY/WX - SKY CONDITION/PRESENT WEATHER TMP - TEMPERATURE IN FAHRENHEIT DWPT - DEWPOINT IN FAHRENHEIT RH - RELATIVE HUMIDITY IN PERCENT WIND - DIRECTION AND SPEED IN MPH PRES - MEAN SEA LEVEL PRESSURE IN INCHES OF HG WCI - WIND CHILL INDEX VSB - VISIBILITY IN MILES HX - HEAT INDEX TC - TEMPERATURE IN CELSIUS VRB - VARIABLE WIND DIRECTION N/A - NOT AVAILABLE

USA.gov is the U.S. government's official web portal to all federal, state and local government web resources and services.